04.05.2024;08:00;6
04.05.2024;07:00;6
04.05.2024;06:00;6
04.05.2024;05:00;6
04.05.2024;04:00;7
04.05.2024;03:00;8
04.05.2024;02:00;6
04.05.2024;01:00;4
03.05.2024;24:00;5
03.05.2024;23:00;4
03.05.2024;22:00;5
03.05.2024;21:00;5
03.05.2024;20:00;5
03.05.2024;19:00;5
03.05.2024;18:00;4
03.05.2024;17:00;3
03.05.2024;16:00;3
03.05.2024;15:00;3
03.05.2024;14:00;3
03.05.2024;13:00;3
03.05.2024;12:00;2
03.05.2024;11:00;2
03.05.2024;10:00;2
03.05.2024;09:00;2
03.05.2024;08:00;2
03.05.2024;07:00;3
03.05.2024;06:00;3
03.05.2024;05:00;4
03.05.2024;04:00;5
03.05.2024;03:00;5
03.05.2024;02:00;5
03.05.2024;01:00;5
02.05.2024;24:00;8
02.05.2024;23:00;9
02.05.2024;22:00;11
02.05.2024;21:00;9
02.05.2024;20:00;9
02.05.2024;19:00;10
02.05.2024;18:00;10
02.05.2024;17:00;10
02.05.2024;16:00;9
02.05.2024;15:00;13
02.05.2024;14:00;9
02.05.2024;13:00;9
02.05.2024;12:00;9
02.05.2024;11:00;8
02.05.2024;10:00;8
02.05.2024;09:00;8
02.05.2024;08:00;9
02.05.2024;07:00;9
02.05.2024;06:00;9
02.05.2024;05:00;9
02.05.2024;04:00;10
02.05.2024;03:00;11
02.05.2024;02:00;11
02.05.2024;01:00;12
01.05.2024;24:00;14
01.05.2024;23:00;17
01.05.2024;22:00;16
01.05.2024;21:00;19
01.05.2024;20:00;18
01.05.2024;19:00;18
01.05.2024;18:00;21
01.05.2024;17:00;19
01.05.2024;16:00;20
01.05.2024;15:00;20
01.05.2024;14:00;19
01.05.2024;13:00;19
01.05.2024;12:00;17
01.05.2024;11:00;15
01.05.2024;10:00;15
01.05.2024;09:00;19
01.05.2024;08:00;20
01.05.2024;07:00;21
01.05.2024;06:00;23
01.05.2024;05:00;28
01.05.2024;04:00;28
01.05.2024;03:00;29
01.05.2024;02:00;32
01.05.2024;01:00;35
30.04.2024;24:00;38
30.04.2024;23:00;41
30.04.2024;22:00;44
30.04.2024;21:00;47
30.04.2024;20:00;51
30.04.2024;19:00;47
30.04.2024;18:00;45
30.04.2024;17:00;45
30.04.2024;16:00;43
30.04.2024;15:00;41
30.04.2024;14:00;34
30.04.2024;13:00;28
30.04.2024;12:00;25
30.04.2024;11:00;20
30.04.2024;10:00;20
30.04.2024;09:00;18
30.04.2024;08:00;13
30.04.2024;07:00;12
30.04.2024;06:00;13
30.04.2024;05:00;14
30.04.2024;04:00;15
30.04.2024;03:00;17
30.04.2024;02:00;18
30.04.2024;01:00;20
29.04.2024;24:00;22
29.04.2024;23:00;23
29.04.2024;22:00;27
29.04.2024;21:00;23
29.04.2024;20:00;23
29.04.2024;19:00;21
29.04.2024;18:00;21
29.04.2024;17:00;19
29.04.2024;16:00;19
29.04.2024;15:00;23
29.04.2024;14:00;16
29.04.2024;13:00;13
29.04.2024;12:00;10
29.04.2024;11:00;8
29.04.2024;10:00;6
29.04.2024;09:00;6
29.04.2024;08:00;10
29.04.2024;07:00;7
29.04.2024;06:00;8
29.04.2024;05:00;8
29.04.2024;04:00;9
29.04.2024;03:00;11
29.04.2024;02:00;13
29.04.2024;01:00;17
